map of KLUX home
Great Circle Mapper logo
KLUX - Airport
Location
City:  Laurens, South Carolina, United States
Name:Laurens County Airport
ICAO:KLUX
FAA LID:LUX

Details
Type:Airport (Airfield)
Use:Public/Civil
Latitude:3430'26"N (34.507111)
Longitude:8156'49"W (-81.946943)
Datum:WGS 1984
Elevation:697 ft (212 m)
Variation:6.81W (WMM2015 magnetic declination)
-0.07 annual change
Runways:1
Longest:4051 × 75 ft (1235 × 23 m), paved

Time
Time Zone:UTC-5 (DST-4)
Local Time:

Weather
METAR:KLUX 290455Z AUTO 27003KT 10SM CLR 21/20 A2997 RMK AO2

Related Locations
Nearby:
Farthest:MQZ: 11468 mi / 18456 km
Margaret River [Margaret River Airport], WA, AU

Find:

   beyond  
but within

Other Information
Maps:
NOTAMs:
Links:
Sources:

  
flag of United States
flag of South Carolina
  

Sectional Chart

Flight Planning
at skyvector.com

Satellite Image

Google Maps Satellite view

 

Copyright © 2004-2016 Karl L. Swartz. All rights reserved.
The Great Circle Mapper name and logo are trademarks of the Great Circle Mapper.
All other trademarks mentioned herein belong to their respective owners.
Please see credits for attibutions and further copyright information.

  Follow gcmap on Facebook Follow gcmap on Twitter Follow gcmap on Google+ GCmap on LinkedIn

hCard Microformat

Geo Microformat